Change the Weather History Date:

Wednesday, December 11, 2013

  Actual Average Record
Temperature  
Mean Temperature 20 °F -  
Max Temperature 27 °F - - ()
Min Temperature 14 °F - - ()
Degree Days  
Heating Degree Days 44    
Moisture  
Dew Point 16 °F    
Average Humidity 77    
Maximum Humidity 96    
Minimum Humidity 65    
Precipitation  
Precipitation 0.00 in - - ()
Sea Level Pressure  
Sea Level Pressure 29.52 in    
Wind  
Wind Speed 8 mph (WNW)    
Max Wind Speed 14 mph    
Max Gust Speed 23 mph    
Visibility 10 miles    
Events      
T = Trace of Precipitation, MM = Missing Value Source: NWS Daily Summary

Daily Weather History Graph

Daily Weather History Graph

Search for Another Location

Airport or City:

Trip Planner

Search our weather history database for the weather conditions in past years. The results will help you decide how hot, cold, wet, or windy it might be!

Date:

Astronomy

Dec. 11, 2013 Rise Set
Actual Time 9:55 AM AKST 3:41 PM AKST
Civil Twilight 8:56 AM AKST 4:41 PM AKST
Nautical Twilight 7:58 AM AKST 5:39 PM AKST
Astronomical Twilight 7:05 AM AKST 6:32 PM AKST
Moon 1:34 PM AKST (12/11) 3:06 AM AKST (12/11)
Length of Visible Light 7h 44m
Length of Day
5h 45m
Waxing Gibbous, 73% of the Moon is Illuminated
Dec 11
Waxing Gibbous
Dec 17
Full
Dec 25
Last Quarter
Jan 1
New
Jan 7
First Quarter

Hourly Weather History & Observations

Time (AKST) Temp. Windchill Dew Point Humidity Pressure Visibility Wind Dir Wind Speed Gust Speed Precip Events Conditions
12:53 AM 27.0 °F 23.0 °F 26.1 °F 96% 29.75 in 10.0 mi Variable 3.5 mph - N/A   Overcast
1:53 AM 27.0 °F 20.5 °F 26.1 °F 96% 29.72 in 10.0 mi WNW 5.8 mph - N/A   Overcast
2:53 AM 26.1 °F 17.6 °F 24.1 °F 92% 29.69 in 8.0 mi West 8.1 mph - N/A   Overcast
3:07 AM 26.1 °F 18.4 °F 24.1 °F 92% 29.68 in 10.0 mi WNW 6.9 mph - N/A   Overcast
3:53 AM 26.1 °F 15.6 °F 24.1 °F 92% 29.66 in 10.0 mi WNW 11.5 mph 18.4 mph N/A   Overcast
4:53 AM 26.1 °F 16.8 °F 21.9 °F 84% 29.62 in 10.0 mi WNW 9.2 mph - N/A   Overcast
5:53 AM 25.0 °F 14.8 °F 21.9 °F 88% 29.59 in 10.0 mi WNW 10.4 mph - N/A   Overcast
6:53 AM 25.0 °F 13.1 °F 19.0 °F 78% 29.57 in 10.0 mi West 13.8 mph 21.9 mph N/A   Overcast
7:53 AM 25.0 °F 14.2 °F 18.0 °F 75% 29.55 in 10.0 mi West 11.5 mph - N/A   Overcast
8:53 AM 25.0 °F 13.1 °F 17.1 °F 72% 29.53 in 10.0 mi West 13.8 mph 23.0 mph N/A   Overcast
9:42 AM 24.1 °F 13.7 °F 16.0 °F 71% 29.52 in 10.0 mi West 10.4 mph 21.9 mph N/A   Overcast
9:53 AM 24.1 °F 13.7 °F 16.0 °F 71% 29.52 in 10.0 mi West 10.4 mph 19.6 mph N/A   Overcast
10:53 AM 24.1 °F 14.4 °F 15.1 °F 69% 29.51 in 10.0 mi West 9.2 mph - N/A   Overcast
11:53 AM 24.1 °F 13.1 °F 15.1 °F 69% 29.49 in 10.0 mi WNW 11.5 mph - N/A   Overcast
12:53 PM 23.0 °F 11.1 °F 14.0 °F 68% 29.48 in 10.0 mi West 12.7 mph 18.4 mph N/A   Overcast
1:53 PM 23.0 °F 12.4 °F 12.9 °F 65% 29.47 in 10.0 mi WNW 10.4 mph 18.4 mph N/A   Overcast
2:53 PM 21.9 °F 11.0 °F 12.9 °F 68% 29.46 in 10.0 mi West 10.4 mph 18.4 mph N/A   Mostly Cloudy
3:53 PM 21.9 °F 10.4 °F 12.9 °F 68% 29.44 in 10.0 mi West 11.5 mph - N/A   Overcast
4:53 PM 21.0 °F 11.4 °F 12.0 °F 68% 29.44 in 10.0 mi West 8.1 mph - N/A   Mostly Cloudy
5:53 PM 21.0 °F 9.9 °F 10.9 °F 65% 29.42 in 10.0 mi West 10.4 mph - N/A   Clear
6:53 PM 19.9 °F 9.3 °F 10.9 °F 68% 29.42 in 10.0 mi West 9.2 mph - N/A   Clear
7:53 PM 18.0 °F 8.7 °F 10.9 °F 74% 29.42 in 10.0 mi West 6.9 mph - N/A   Clear
8:53 PM 16.0 °F 5.3 °F 10.9 °F 81% 29.41 in 10.0 mi West 8.1 mph - N/A   Clear
9:53 PM 14.0 °F 2.9 °F 10.0 °F 84% 29.40 in 10.0 mi West 8.1 mph - N/A   Clear
10:53 PM 16.0 °F 5.3 °F 10.0 °F 77% 29.42 in 10.0 mi West 8.1 mph - N/A   Overcast
11:53 PM 17.1 °F 6.6 °F 9.0 °F 71% 29.42 in 10.0 mi West 8.1 mph - N/A   Overcast